Miscellaneous Local Product
Issued by NWS Hastings, NE

Home | Current Version | Previous Version | Graphics & Text | Print | Product List | Glossary On
Versions: 1 2 3 4 5 6 7 8 9 10 11 12 13 14 15 16 17 18 19 20 21 22 23 24 25 26 27 28 29 30 31 32 33 34 35 36 37 38 39 40 41 42 43 44 45 46 47 48 49 50
000
AXUS43 KGID 211602
MISGRI

GID CWA HOURLY WEATHER ROUNDUP
NATIONAL WEATHER SERVICE HASTINGS NE
1100 AM CDT TUE OCT 21 2014

NOTE: "FAIR" INDICATES FEW OR NO CLOUDS BELOW 12,000 FEET WITH NO
SIGNIFICANT WEATHER AND/OR OBSTRUCTIONS TO VISIBILITY.

...SOUTH CENTRAL NEBRASKA...

CITY           SKY/WX    TMP DP  RH WIND       PRES   REMARKS
GRAND ISLAND   SUNNY     64  46  52 SW8       30.10S
HASTINGS       SUNNY     63  44  50 S6        30.09S
KEARNEY        SUNNY     64  46  52 S12       30.09F
ORD            SUNNY     66  47  50 S12       30.05S
YORK           SUNNY     64  46  52 S7        30.10S
AURORA         SUNNY     63  44  49 S7        30.09F
LEXINGTON      SUNNY     67  47  47 S12       30.06F
HOLDREGE       SUNNY     62  44  52 S10       30.08S
HEBRON         SUNNY     62  45  54 S5        30.11F

...NEBRASKA PANHANDLE...

CITY           SKY/WX    TMP DP  RH WIND       PRES   REMARKS
CHADRON        SUNNY     64  46  52 SW3       29.89F
ALLIANCE       SUNNY     61  48  62 S12       29.95F
SCOTTSBLUFF    MOSUNNY   59  44  57 CALM      29.97F
SIDNEY         SUNNY     61  49  64 SW12      30.00S

...WESTERN AND NORTH CENTRAL NEBRASKA...

CITY           SKY/WX    TMP DP  RH WIND       PRES   REMARKS
VALENTINE      SUNNY     68  49  50 S22G30    29.95F
AINSWORTH      SUNNY     66  49  55 S17       29.99S
ONEILL         SUNNY     67  48  50 SW14      30.03F
BROKEN BOW     SUNNY     66  47  50 S13G23    30.05F
IMPERIAL       CLOUDY    58  55  90 S9G22     30.04S FOG
NORTH PLATTE   SUNNY     64  48  56 S16G23    30.05S
MCCOOK         MOSUNNY   65  51  60 S12G18    30.06F

...EASTERN NEBRASKA...

CITY           SKY/WX    TMP DP  RH WIND       PRES   REMARKS
NORFOLK        SUNNY     66  43  43 S8        30.07F
SO SIOUX CITY  SUNNY     59  43  55 SE8       30.10F
TEKAMAH        SUNNY     60  43  53 SE7       30.12S
COLUMBUS       SUNNY     64  45  48 S7        30.10F
ALBION         SUNNY     59  45  60 S6        30.08S
OMAHA EPPLEY   SUNNY     58  45  62 S5        30.13F
OFFUTT AFB     SUNNY     60  52  77 SE5       30.13S
MILLARD        SUNNY     58  46  63 SE3       30.12F
LINCOLN        SUNNY     60  45  57 SE5       30.13S
NEBRASKA CITY  SUNNY     60  37  42 S3        30.14S
BEATRICE       SUNNY     61  46  58 S3        30.12S
FALLS CITY     SUNNY     61  46  57 E3        30.13S

...NORTHERN KANSAS...

CITY           SKY/WX    TMP DP  RH WIND       PRES   REMARKS
GOODLAND       CLOUDY    56  55  97 S20       30.07S FOG
HILL CITY      NOT AVBL
NORTON         MOSUNNY   64  50  59 S10       30.07F
PHILLIPSBURG   SUNNY     63  48  59 SE5       30.09F
SMITH CENTER   SUNNY     64  52  63 SE7       30.10F
BELOIT         SUNNY     61  48  63 CALM      30.10S
HAYS           PTSUNNY   61  52  72 SE7       30.10S
RUSSELL        PTSUNNY   65  56  72 SE8       30.08F
CONCORDIA      SUNNY     63  52  67 CALM      30.11S
SALINA         MOSUNNY   64  55  72 CALM      30.11F
TOPEKA         SUNNY     61  51  70 CALM      30.14S



USA.gov is the U.S. government's official web portal to all federal, state and local government web resources and services.